Regional Weather Roundup
Issued by NWS

Home | Current Version | Previous Version | Graphics & Text | Print | Product List | Glossary On
Versions: 1 2 3 4 5 6 7 8 9 10 11 12 13 14 15 16 17 18 19 20 21 22 23 24 25 26 27 28 29 30 31 32 33 34 35 36 37 38 39 40 41 42 43 44 45 46 47 48 49 50
000
ASUS45 KBOU 091607
RWRCO

WEATHER ROUNDUP FOR COLORADO
NATIONAL WEATHER SERVICE DENVER/BOULDER CO
900 AM MST TUE FEB 09 2016

NOTE: "FAIR" INDICATES FEW OR NO CLOUDS BELOW 12000 FEET WITH NO
SIGNIFICANT WEATHER AND/OR OBSTRUCTIONS TO VISIBILITY.

COZ001>005-013-030-031-091700-
...NORTHWEST COLORADO...

CITY           SKY/WX    TMP DP  RH WIND       PRES   REMARKS
CRAIG          CLOUDY     1   0  95 CALM      30.56R FOG
HAYDEN         CLOUDY    18  10  73 E10       30.53R WCI   6
MEEKER         CLOUDY    14  11  87 CALM      30.53S
MOUNT WERNER   NOT AVBL
STEAMBOAT SPGS CLOUDY     9   6  86 CALM      30.54S
WALDEN         CLOUDY     3  -2  78 N5        30.50R WCI  -6
$$

COZ006>008-011-091700-
...WEST CENTRAL VALLEYS...

CITY           SKY/WX    TMP DP  RH WIND       PRES   REMARKS
GRAND JUNCTION CLOUDY    25  20  81 S7        30.54S WCI  17
MONTROSE       CLOUDY    23  14  68 S7        30.57R WCI  15
EAGLE          PTSUNNY   10   9  92 CALM      30.63R FOG
RIFLE          CLOUDY    16  11  80 SE5       30.57R WCI   9
DELTA          CLOUDY    27  20  73 CALM      30.58R
NUCLA          CLOUDY    27  18  69 E3        30.56R
$$

COZ017>023-064>068-091700-
...SOUTHWEST COLORADO...

CITY           SKY/WX    TMP DP  RH WIND       PRES   REMARKS
DURANGO        CLOUDY    19  13  77 CALM      30.45R
CORTEZ         CLOUDY    28  16  60 NE5       30.46R WCI  23
PAGOSA SPRINGS CLOUDY    27  13  56 CALM      30.44S
TELLURIDE      CLOUDY    28   1  31 CALM      30.50S
WOLF CREEK PAS CLOUDY    30  -8  19 NE20      30.54R WCI  18
$$

COZ009-010-012-014-032>034-037-058>063-091700-
...CENTRAL COLORADO...

CITY           SKY/WX    TMP DP  RH WIND       PRES   REMARKS
ASPEN          CLOUDY    19  11  70 S3        30.52S
BUENA VISTA    CLOUDY    34  10  37 NW20G28   30.42S WCI  23
COPPER MTN     CLOUDY    27   1  33 W10G16    30.53R WCI  17
BERTHOUD PASS  FAIR      14   3  62 NW23G35   30.48S WCI  -5
COTTONWOOD PAS CLOUDY    37  -2  18 E7        30.45S
GUNNISON       CLOUDY    -8 -18  59 CALM      30.62R VSB 3/4
KREMMLING      FOG      N/A N/A N/A CALM      30.61S VSB 1/4
LEADVILLE      CLOUDY    23   7  50 NE8       30.48S WCI  14
SALIDA         NOT AVBL
SUNLIGHT       SUNNY     27  18  69 N9          N/A  WCI  17
WILKERSON PASS CLOUDY    30   0  27 N12G23    30.47S WCI  21
$$

COZ069>075-091700-
...SAN LUIS VALLEY/SANGRE DE CRISTO MOUNTAINS...

CITY           SKY/WX    TMP DP  RH WIND       PRES   REMARKS
ALAMOSA        CLOUDY    24  17  74 SW3       30.47R
LA VETA PASS   CLOUDY    34   3  27 CALM      30.46R
SAGUACHE       CLOUDY    32  14  47 NW14G22   30.46S WCI  22
$$

COZ035-036-038>040-091700-
...NORTHERN COLORADO FRONT RANGE...

CITY           SKY/WX    TMP DP  RH WIND       PRES   REMARKS
DENVER INTL AP CLOUDY    35  21  56 CALM      30.32R
DMNS CITY PARK   N/A     41  17  37 E7        30.33R
AURORA         MOSUNNY   39  18  43 S6        30.33R
FRONT RANGE AP SUNNY     30  19  64 S6        30.33R WCI  24
ERIE MUNI ARPT SUNNY     29  22  74 CALM      30.33R
BOULDER MUN AP SUNNY     37  21  52 SE3       30.32R
CENTENNIAL     CLOUDY    34  19  54 SE6       30.32R WCI  29
BROOMFIELD     NOT AVBL
FORT COLLINS   CLOUDY    25  19  80 CALM      30.33R
LONGMONT       CLOUDY    31  19  60 SW5       30.34S WCI  27
$$

COZ041-046-047-076>085-087-088-091700-
...PIKES PEAK/PALMER DIVIDE AND SOUTHERN FOOTHILLS...

CITY           SKY/WX    TMP DP  RH WIND       PRES   REMARKS
COLO. SPRINGS  CLOUDY    32  17  54 NE7       30.35R WCI  26
A. F. ACADEMY  CLOUDY    27  12  53 N2        30.33S
SCHRIEVER AFB  NOT AVBL
ELLICOTT       NOT AVBL
FALCON         NOT AVBL
FORT CARSON    CLOUDY    28  19  69 NW7       30.33S WCI  20
LIMON          CLOUDY    29  18  63 W10       30.33F WCI  20
MONUMENT HILL  CLOUDY    32   9  37 W6        30.36R WCI  26
TRINIDAD       SUNNY     40  20  44 SW15      30.37R
$$

COZ042>045-048>051-090-091-091700-
...NORTHEAST COLORADO...

CITY           SKY/WX    TMP DP  RH WIND       PRES   REMARKS
GREELEY ARPT   CLOUDY    18  16  93 NW5       30.34S WCI  11
AKRON          SUNNY     33  22  63 W16       30.28S WCI  23
BURLINGTON     SUNNY     37  24  59 NW14      30.27R
WRAY           SUNNY     40  28  62 NW15      30.25S
STERLING       SUNNY     41  28  60 NW16      30.27R
HOLYOKE        SUNNY     43  28  56 NW14G22   30.25R
FORT MORGAN    SUNNY     32  22  68 NW14      30.31S WCI  22
$$

COZ086-089-092>099-091700-
...SOUTHEAST COLORADO...

CITY           SKY/WX    TMP DP  RH WIND       PRES   REMARKS
PUEBLO         SUNNY     34  25  69 CALM      30.35S
LA JUNTA       SUNNY     36  25  64 W10       30.35S
LAMAR          SUNNY     37  26  64 W17       30.32R
SPRINGFIELD      N/A     50  25  37 W12       30.32S
$$



USA.gov is the U.S. government's official web portal to all federal, state and local government web resources and services.